World > North America > United States > Ohio

Felicity, Ohio Regional Weather

Lat: 38.84N, Lon: 84.1W
Wx Zone: OHZ078
Warning NWS WEATHER ALERT - HARD FROST ADVISORY (More Info. Click Here) Warning
Feedback

Felicity, OH Regional Weather

Expires:201910181200;;889600
ASUS41 KCLE 181112
RWRCLE
OHIO REGIONAL WEATHER ROUNDUP
NATIONAL WEATHER SERVICE WILMINGTON, OH
700 AM EDT FRI OCT 18 2019

NOTE: "FAIR" INDICATES FEW OR NO CLOUDS BELOW 12,000 FEET WITH NO
SIGNIFICANT WEATHER AND/OR OBSTRUCTIONS TO VISIBILITY.


OHZ042-051>053-060>062-070>072-077>081-181200-
  SOUTHWEST OHIO
  
CITY           SKY/WX    TMP DP  RH WIND       PRES   REMARKS
CINC-COVINGTON FAIR      40  37  89 N3        30.08R                  
CINC-LUNKEN    FAIR      34  33  96 CALM      30.11R                  
HAMILTON       FAIR      32  32 100 CALM      30.11R                  
DAYTON         FAIR      37  34  89 NW6       30.09R                  
WRIGHT-PAT AFB FAIR      33  31  91 SW3       30.08R                  
DAYTON GENERAL FAIR      39  35  86 CALM      30.08R                  
WILMINGTON     FAIR      33  32  96 SW3       30.08R FOG              
$$


SKY/WX - Weather  TMP - Temperature  DP - Dew Point  RH - Relative Humidity
WIND - Wind Direction/Speed PRES - Barometric Pressure VSB - Visibility
WCI - Wind Chill Index E13G22 Wind - East Wind 13 mph/Gusts of 22 mph